Regional Weather Roundup
Issued by NWS San Angelo, TX

Current Version | Previous Version | Text Only | Print | Product List | Glossary On
Versions: 1 2 3 4 5 6 7 8 9 10 11 12 13 14 15 16 17 18 19 20 21 22 23 24 25 26 27 28 29 30 31 32 33 34 35 36 37 38 39 40 41 42 43 44 45 46 47 48 49 50
000
ASUS44 KSJT 261502
RWRSJT
WEST CENTRAL TEXAS REGIONAL WEATHER ROUNDUP
NATIONAL WEATHER SERVICE SAN ANGELO TX
1000 AM CDT WED APR 26 2017

NOTE: "FAIR" INDICATES FEW OR NO CLOUDS BELOW 12,000 FEET WITH NO
SIGNIFICANT WEATHER AND/OR OBSTRUCTIONS TO VISIBILITY.

TXZ049-054-064>066-071>073-076>078-098-099-113-114-127-128-139-140-
154-155-168>170-261600
...LOCATIONS ACROSS WEST CENTRAL TEXAS...

CITY           SKY/WX    TMP DP  RH WIND       PRES   REMARKS
SAN ANGELO     SUNNY     73  32  22 W25G36    29.68R
ABILENE        LGT RAIN  67  52  58 NW13      29.65R
DYESS AFB      SUNNY     69  46  45 NW21      29.64R
JUNCTION       SUNNY     78  38  23 NW15      29.65R
SWEETWATER     SUNNY     66  36  32 NW23G31   29.69S
BROWNWOOD      NOT AVBL
COLEMAN        SUNNY     70  52  53 W9        29.63R
SONORA         SUNNY     72  30  21 NW14G29   29.75R
OZONA            N/A     72  28  20 NW35G41   29.74R
BRADY          NOT AVBL
$$

TEXAS PANHANDLE/OKLAHOMA PANHANDLE

CITY           SKY/WX    TMP DP  RH WIND       PRES   REMARKS
AMARILLO       PTSUNNY   43  37  79 N28G36    29.78S WCI  33
BORGER         PTSUNNY   44  37  76 N18G26    29.79F WCI  36
CANADIAN       CLOUDY    46  39  77 N24G32    29.76S WCI  37
DALHART        MOSUNNY   45  36  70 N21       29.82S WCI  37
DUMAS          MOSUNNY   42  36  78 N24G37    29.79S WCI  33
GUYMON         NOT AVBL
HEREFORD       CLOUDY    44  40  84 N22G31    29.81S WCI  36
PAMPA          PTSUNNY   44  38  80 N31       29.76S WCI  33
PERRYTON       CLOUDY    43  35  73 N22G30    29.77R WCI  34
$$

SOUTHERN PANHANDLE/SOUTH PLAINS/ROLLING PLAINS

CITY           SKY/WX    TMP DP  RH WIND       PRES   REMARKS
LUBBOCK        MOSUNNY   50  38  63 N22G39    29.78R
SNYDER         MOSUNNY  N/A N/A N/A NW23G36   29.71R
CHILDRESS      LGT RAIN  48  39  71 N23G31    29.75R
SEMINOLE       CLOUDY    53  38  57 N20G29    29.84R
$$

PERMIAN BASIN

CITY           SKY/WX    TMP DP  RH WIND       PRES   REMARKS
MIDLAND        SUNNY     64  36  35 NW31G38   29.77R
ODESSA         SUNNY     64  35  34 MISG      29.79R
WINK           SUNNY     65  28  24 NW29G39   29.81R
$$

FAR WEST/SOUTHWEST MOUNTAINS/TRANS PECOS

CITY           SKY/WX    TMP DP  RH WIND       PRES   REMARKS
ALPINE         MOSUNNY   66  27  22 NW24G32   29.94F
DRYDEN           N/A     78  33  19 NW20G29   29.73S
EL PASO        MOSUNNY   64  20  18 NW14      29.89R
FORT STOCKTON  MOSUNNY   70  32  24 W16       29.80R
GUADALUPE PASS SUNNY     54  24  31 W23G35    29.90R
MARFA          MOSUNNY   64  25  22 NW18      29.93R
PECOS          SUNNY     68  28  22 N23G29    29.82R
$$

DALLAS/FORT WORTH METROPLEX

CITY           SKY/WX    TMP DP  RH WIND       PRES   REMARKS
DFW AIRPORT    CLOUDY    64  61  90 NW16      29.51R
FTW MEACHAM    CLOUDY    67  60  78 N12       29.54R
DAL-EXECUTIVE  LGT RAIN  66  64  93 N12G21    29.49R FOG
GRAND PRAIRIE  MOSUNNY   66  63  88 NW9G21    29.53R
ADDISON        PTSUNNY   63  59  88 NW7G18    29.51S
MESQUITE       CLOUDY    66  66 100 CALM      29.48F
LANCASTER      CLOUDY    72  69  90 CALM      29.49S
$$

NORTH CENTRAL TEXAS

CITY           SKY/WX    TMP DP  RH WIND       PRES   REMARKS
SHRMAN/DENISON CLOUDY    56  55  95 N12G17    29.56R FOG
GAINESVILLE    CLOUDY    54  50  85 N12       29.58R
BRIDGEPORT     CLOUDY    56  50  82 N5        29.58R
DENTON         CLOUDY    62  56  80 N12       29.55R
WAXAHACHIE     PTSUNNY   74  73  95 S9        29.49S
GRANBURY       MOSUNNY   69  59  70 W9        29.57R
$$

WESTERN NORTH TEXAS

CITY           SKY/WX    TMP DP  RH WIND       PRES   REMARKS
WICHITA FALLS  CLOUDY    51  43  74 N25G35    29.65R
VERNON         CLOUDY    51  41  67 N21G28    29.72R
BRECKENRIDGE   PTSUNNY   62  52  69 NW16G26   29.64R
COMANCHE       PTSUNNY   65  58  79 NW7       29.59R
$$

CENTRAL AND SOUTH CENTRAL TEXAS

CITY           SKY/WX    TMP DP  RH WIND       PRES   REMARKS
AUSTIN/BERGSTM SUNNY     82  69  64 SW14      29.53R
WACO           SUNNY     79  70  74 SW16      29.49R
HILLSBORO      MOSUNNY   77  71  82 S14       29.49R
TEMPLE         SUNNY     79  70  74 S15       29.51S
KILLEEN-GRAY   SUNNY     79  69  70 SW14      29.51R
FORT HOOD      SUNNY     78  69  72 SW15G22   29.49R
GEORGETOWN     MOSUNNY   79  66  65 SW14      29.52S
LAGO VISTA     PTSUNNY   78  68  70 W9G20     29.56R
SAN MARCOS     SUNNY     81  70  69 SW13      29.56R
NEW BRAUNFELS  SUNNY     81  69  67 W12       29.54R
RANDOLPH AFB   SUNNY     80  71  75 SW9       29.56R
SAN ANTONIO    PTSUNNY   79  69  71 SW10      29.58R
STINSON        SUNNY     81  69  67 W9        29.55R
PLEASANTON     NOT AVBL
LA GRANGE      SUNNY     81  72  75 SW8       29.52F
GIDDINGS       SUNNY     79  69  72 SW9       29.54S
$$

EAST TEXAS

CITY           SKY/WX    TMP DP  RH WIND       PRES   REMARKS
PARIS          CLOUDY    64  61  88 NW10      29.53R THUNDER
CLARKSVILLE    NOT AVBL
TYLER          CLOUDY    76  69  79 S17G23    29.49F
LONGVIEW       PTSUNNY   77  70  79 S13       29.53F
PALESTINE      MOSUNNY   78  70  74 S13G24    29.52R
NACOGDOCHES    PTSUNNY   73  68  83 S8        29.55F
$$

TEXAS HILL COUNTRY AND EDWARDS PLATEAU

CITY           SKY/WX    TMP DP  RH WIND       PRES   REMARKS
LLANO          NOT AVBL
HORSESHOE BAY  FAIR      79  52  39 NW12G17   29.57R
KERRVILLE      SUNNY     76  51  40 NW13      29.62R
FREDERICKSBRG  NOT AVBL
ROCKSPRINGS    NOT AVBL
HONDO          SUNNY     80  69  69 N10       29.60R
UVALDE         SUNNY     79  56  45 N12       29.62R
DEL RIO        SUNNY     78  40  25 NW15G25   29.68R
$$

SOUTHEAST TEXAS

CITY           SKY/WX    TMP DP  RH WIND       PRES   REMARKS
COLLEGE STN    MOSUNNY   78  71  79 S12       29.53F HAZE
CALDWELL       NOT AVBL
CROCKETT       LGT RAIN  77  70  78 S12       29.58F
BRENHAM        MOSUNNY   80  73  80 S10       29.53F HAZE
HUNTSVILLE     PTSUNNY   78  69  73 S15G23    29.56F
CONROE         LGT RAIN  75  71  87 W3        29.59R FOG
HOUSTON BUSH   CLOUDY    79  69  71 VRB5G18   29.58R
HOUSTON HOBBY  CLOUDY    79  70  74 S9G29     29.54R
PERLAND        CLOUDY    81  70  69 S16G24    29.56S HAZE
WHARTON        CLOUDY    78  69  74 S8        29.58R
$$

THE UPPER TEXAS COAST

CITY           SKY/WX    TMP DP  RH WIND       PRES   REMARKS
ORANGE         CLOUDY    77  71  80 S16G23    29.60S
PORT ARTHUR    CLOUDY    79  70  74 S20G28    29.57S
GALVESTON      CLOUDY    80  74  81 S20       29.57S
ANGLETON       CLOUDY    81  73  76 S17G24    29.55R
BAY CITY       CLOUDY    79  72  79 S15G21    29.54S HAZE
$$

TEXAS COASTAL BEND, RIO GRANDE PLAINS DEEP SOUTH TEXAS

CITY           SKY/WX    TMP DP  RH WIND       PRES   REMARKS
VICTORIA       CLOUDY    78  71  79 SW6       29.56R HAZE
BEEVILLE       CLOUDY    78  78  99 W5        29.55R FOG
ROCKPORT       CLOUDY    80  73  79 S7G17     29.53R HAZE
PORT ARANSAS   CLOUDY    79  73  83 S17       29.52S HAZE
PORT LAVACA    CLOUDY    78  74  88 S15       29.55R FOG
CORPUS CHRISTI CLOUDY    80  73  79 SW16      29.53R HAZE
KINGSVILLE NAS PTSUNNY   83  74  74 SW14      29.53R
COTULLA        SUNNY     82  70  66 N12       29.58R
LAREDO         MOSUNNY   83  64  52 NW15G26   29.60R
BROWNSVILLE    MOSUNNY   85  75  72 S20G29    29.53R
PORT ISABEL    MOSUNNY   85  75  72 S15G26    29.52R HAZE
HEBBRONVILLE   MOSUNNY   82  64  54 NW10G26   29.57R
MCALLEN        SUNNY     85  72  65 S10       29.54R
WESLACO        MOSUNNY   83  73  71 S13       29.53R
FALFURRIAS     SUNNY     82  72  71 SW10      29.53R
EDINBURG       SUNNY     85  72  63 S8        29.54R
$$




USA.gov is the U.S. government's official web portal to all federal, state and local government web resources and services.